STARLINK-4739, 53792

Orbit data source: Space-Track

STARLINK-4739, 53792 is a payload satellite owned by SpaceX/Seattle (US) in LEO that was launched on Sun, 11 Sep 2022 UTC via an FALCON 9 launch vehicle from the Air Force Eastern Test Range (AFETR). Payload-class satellites include a variety of spacecraft equipped with specific instruments for various scientific and technological missions. These include communications satellites like Starlink; space stations such as the ISS; scientific satellites like the Hubble; Earth observation satellites from companies like Planet Labs, Umbra, and HawkEye 360; GPS; miniature CubeSats for education and research; and military/defense satellites.

Loading next visibility...
Identifier
53792, 2022-111V
Orbit
LEO
Country
Flag of USUS
Related business
Manufacturer
SpaceX/Seattle
Mission
Operational Commercial Communications
Bus & Motor
STARLINK, Unknown motor
Mass
305 kg wet, ~290 kg dry
Launch date (UTC)
2022-09-11 (4 years ago)
Launch vehicle
FALCON 9
Launch site
Air Force Eastern Test Range (AFETR)
Object type
Payload
Rocket body
Debris
Shape & HBR
Box + 1 Pan, 10.1 m
Radar Cross Section
13.562 m², Large (>1 m²)

Expand to show TLE details & history
Last TLE update: 20 hours ago

TLE from 20 hours ago
0 STARLINK-4739
1 53792U 22111V   26254.85998512  .00000417  00000-0  25211-4 0  9996
2 53792  53.1598 146.3920 0001373 102.6609 257.4546 15.31701163221952
Epoch: 2026-09-11T20:38Z
TLE epoch observation values (Epoch: 2026-09-11T20:38:22.714Z)
Latitude
-0.00001°
Longitude
-154.07994°
Altitude
471.841 km
Speed
7.631 km/s
True Right ascension
09h 45m 34s
True Declination
0° 00' 00"
Sunlit
Object was in daylight at epoch
Visualization orbit readout
Latitude
Unknown
Longitude
Unknown
Altitude
Unknown
Speed
Unknown
Apparent Right ascension
Unknown
Apparent Declination
Unknown
Sunlit
N/A
Visualization observer readout
Local Sidereal Time
09:28:35
Azimuth
Unknown
Elevation
Unknown
Doppler factor
Unknown
Orbital elements
Apogee altitude
471.934 km
Perigee altitude
470.053 km
Semi-major axis
6,849.13 km
Eccentricity
0.00014
Inclination
53.1598°
RAAN
146.392°
Arg. of periapsis
102.6609°
True anomaly
257.43924°
Mean anomaly
257.4546°
Eccentric anomaly
257.44692°
Mean motion
3.82904 °/min
Orbital period
94.02 mins
BSTAR
0.000025211
Loading maneuver chart data...
Computing Atmospheric mass density...
Loading historical data...
Loading historical data...
Loading historical data...
Loading historical data...
Loading historical data...
Loading historical data...
Loading historical data...

Documentation

Showing up to 5 results
|